Regional Weather Roundup
Issued by NWS Jackson, KY

Home | Current Version | Previous Version | Text Only | Print | Product List | Glossary Off
Versions: 1 2 3 4 5 6 7 8 9 10 11 12 13 14 15 16 17 18 19 20 21 22 23 24 25 26 27 28 29 30 31 32 33 34 35 36 37 38 39 40 41 42 43 44 45 46 47 48 49 50

000
ASUS43 KJKL 242010
RWRJKL

EAST KENTUCKY HOURLY WEATHER ROUNDUP
NATIONAL WEATHER SERVICE JACKSON KY
300 PM EST FRI FEB 24 2017

NOTE: "FAIR" INDICATES FEW OR NO CLOUDS BELOW 12,000 FEET WITH
NO SIGNIFICANT WEATHER AND/OR OBSTRUCTIONS TO VISIBILITY.

* THESE REPORTS ARE NOT UNDER NWS QUALITY CONTROL AND MAY NOT
  REPORT WEATHER SUCH AS PRECIPITATION AND FOG.

KYZ079-080-083-085-087-088-110-112-115-119-120-242100
...EASTERN KENTUCKY...

CITY           SKY/WX    TMP DP  RH WIND       PRES   REMARKS
JACKSON        MOSUNNY   78  51  38 VRB5      29.70F
LONDON         SUNNY     75  49  39 SW15G23   29.71F
SOMERSET*      SUNNY     73  50  43 S15G23    29.69F
MONTICELLO*    PTSUNNY   78  57  48 VRB7      29.69F
WILLIAMSBURG*  CLEAR     75  52  43 SW15G23   29.72S
MIDDLESBORO*   MOSUNNY   75  53  45 S8G21     29.75F
HARLAN APT*    CLEAR     73  46  38 SE6       29.74F
PIKE CO APT*     N/A     77  47  34 S9G16     29.71F
BIG SANDY APT* CLEAR     78  48  34 SW13G20   29.70F
MOREHEAD APT*  PTCLDY    77  48  36 S8G26     29.67F
$$

KYZ035-036-041-042-044-050-067-078-099-242100
...CENTRAL KENTUCKY...

CITY           SKY/WX    TMP DP  RH WIND       PRES   REMARKS
MT STERLING*   SUNNY     77  52  41 SW17G24   29.66F
FLEMING/MASON* SUNNY     76  52  42 S17G26    29.64F
DANVILLE*      MOSUNNY   77  52  41 SW18G28   29.64F
LEXINGTON      SUNNY     79  49  34 S22G32    29.62F
FRANKFORT      MOSUNNY   80  50  34 S20G29    29.58F
LOUISVILLE     PTSUNNY   81  49  32 SW23G33   29.55F
LEBANON*         N/A     77  52  41 S20G26    29.61F
GLASGOW*       MOSUNNY   78  51  38 SW15G26   29.62F
BOWLING GREEN  MOSUNNY   79  54  41 S23G33    29.60F
$$

KYZ091>093-OHZ055-061-077-WVZ005-015-034-035-042-242100
...SOUTHERN OHIO/WEST VIRGINIA...

CITY           SKY/WX    TMP DP  RH WIND       PRES   REMARKS
COVINGTON      PTSUNNY   77  52  41 S21G30    29.56F
COLUMBUS       PTSUNNY   77  52  41 SW20G30   29.59F
DAYTON         PTSUNNY   74  51  44 S21G31    29.56R
WILMINGTON     MOSUNNY   74  54  49 S25G35    29.57F
HUNTINGTON     SUNNY     79  48  33 SW10G18   29.66F
CHARLESTON     MOSUNNY   79  45  29 S10G22    29.68F
PINEVILLE*     SUNNY     80  32  17 MISG      29.79F
BECKLEY        SUNNY     73  46  38 SE13G21   29.78F
BLUEFIELD      SUNNY     70  43  37 VRB6      29.82F
LOGAN CO APT*    N/A     77  45  31 SW8G17    29.72F
$$

VAZ002-007-008-TNZ017-027-036-066-071-242100
...SOUTHWEST VIRGINIA/EAST TENNESSEE...

CITY           SKY/WX    TMP DP  RH WIND       PRES   REMARKS
WISE*          SUNNY     70  43  37 S17       29.81F
JONESVILLE*      N/A     75  48  38 S12       29.78F
ABINGDON*      SUNNY     76  46  34 W10G16    29.80F
BRISTOL        MOSUNNY   76  48  37 SW8       29.77F
MORRISTOWN*    CLEAR     75  52  43 SW9       29.75F
SEVIERVILLE*   CLEAR     81  48  32 VRB3      29.73F
KNOXVILLE      PTSUNNY   78  51  38 SW18      29.73F
LAFOLLETTE*    CLEAR     75  54  46 SW21      29.77S
OAK RIDGE      PTSUNNY   77  52  41 S8G21     29.75F
CROSSVILLE     MOSUNNY   71  53  52 S13G23    29.76F
NASHVILLE      PTSUNNY   80  52  37 S23G37    29.65F
$$

...KEY TO REMARKS...
VSB - VISIBILITY IN MILES
WCI - WIND CHILL INDEX
HX  - HEAT INDEX

$$



USA.gov is the U.S. government's official web portal to all federal, state and local government web resources and services.